OK1PNK-5 Weather Reports


Display with metric or nautical units.
time (UTC)temp
F
wind
direction
speed
MPH
gust
MPH
rain 1hr
in
rain 24hr
in
rain mn
in
humidity
%
barometer
mb
20260507043954 54 222 4.0 8.0 0.00 0.00 0.00 88 968.0
20260507042955 54 222 4.0 9.0 0.00 0.00 0.00 88 967.9
20260507041954 54 219 3.0 8.0 0.00 0.00 0.00 88 967.8
20260507040954 54 225 3.0 8.0 0.00 0.00 0.00 88 967.8
20260507034955 54 218 2.0 4.0 0.00 0.00 0.00 88 967.7
20260507033954 54 221 2.0 6.0 0.00 0.00 0.00 88 967.6
20260507032954 54 227 2.0 5.0 0.00 0.00 0.00 88 967.6
20260507031954 54 225 2.0 7.0 0.00 0.00 0.00 88 967.6
20260507030954 54 230 2.0 5.0 0.00 0.00 0.00 88 967.6
20260507025954 54 270 2.0 5.0 0.00 0.00 0.00 88 967.4
20260507024954 54 251 2.0 6.0 0.00 0.00 0.00 88 967.4
20260507023954 54 225 3.0 7.0 0.00 0.00 0.00 88 967.3
20260507022955 54 225 3.0 8.0 0.00 0.00 0.00 88 967.3
20260507021954 54 225 3.0 8.0 0.00 0.00 0.00 88 967.3
20260507020955 54 214 4.0 6.0 0.00 0.00 0.00 87 967.1
20260507015954 54 215 4.0 9.0 0.00 0.00 0.00 87 966.9
20260507014954 54 215 4.0 9.0 0.00 0.00 0.00 87 966.9
20260507013954 54 210 6.0 9.0 0.00 0.00 0.00 87 966.9
20260507012955 54 213 5.0 7.0 0.00 0.00 0.00 86 966.7
20260507011954 54 213 5.0 7.0 0.00 0.00 0.00 86 966.7
20260507010954 55 218 2.0 5.0 0.00 0.00 0.00 85 966.6
20260507005954 55 270 2.0 3.0 0.00 0.00 0.00 85 966.6
20260507004954 55 270 2.0 3.0 0.00 0.00 0.00 85 966.6
20260507003955 55 225 2.0 4.0 0.00 0.00 0.00 85 966.6
20260507002954 55 228 1.0 2.0 0.00 0.00 0.00 85 966.6
20260507001954 55 228 1.0 2.0 0.00 0.00 0.00 85 966.6
20260507000954 55 232 2.0 5.0 0.00 0.00 0.00 85 966.5
20260506235954 55 220 2.0 4.0 0.00 0.00 0.00 85 966.6
20260506234954 55 245 2.0 7.0 0.00 0.00 0.00 85 966.6
20260506233954 55 245 2.0 7.0 0.00 0.00 0.00 85 966.6
20260506232954 56 218 2.0 6.0 0.00 0.00 0.00 85 966.4
20260506231954 56 225 2.0 7.0 0.00 0.00 0.00 85 966.2
20260506230954 56 225 2.0 7.0 0.00 0.00 0.00 85 966.2
20260506225954 56 218 2.0 7.0 0.00 0.00 0.00 85 966.0
20260506224954 57 209 2.0 6.0 0.00 0.00 0.00 84 966.0
20260506223954 57 209 2.0 6.0 0.00 0.00 0.00 84 966.0
20260506222954 57 213 2.0 3.0 0.00 0.00 0.00 84 965.8
20260506221955 57 239 2.0 4.0 0.00 0.00 0.00 85 965.7
20260506220954 58 270 2.0 5.0 0.00 0.00 0.62 86 965.8
20260506215954 58 270 2.0 5.0 0.00 0.00 0.62 86 965.8
20260506214954 57 270 2.0 3.0 0.00 0.00 0.62 86 965.9
20260506213954 57 243 2.0 4.0 0.00 0.00 0.62 86 965.9
20260506212954 57 243 2.0 4.0 0.00 0.00 0.62 86 965.9
20260506211954 57 270 3.0 6.0 0.00 0.00 0.62 86 966.0
20260506210954 57 180 2.0 4.0 0.02 0.00 0.62 86 965.2
20260506205954 57 180 2.0 4.0 0.17 0.00 0.62 86 965.2
20260506204954 58 327 1.0 3.0 0.42 0.00 0.62 86 965.1
20260506203954 58 335 2.0 4.0 0.56 0.00 0.62 85 965.0
20260506202954 58 335 2.0 4.0 0.61 0.00 0.62 85 965.0
20260506201954 62 266 5.0 11.0 0.01 0.00 0.01 74 965.1
20260506200954 62 266 5.0 11.0 0.01 0.00 0.01 74 965.1
20260506195955 62 266 5.0 11.0 0.01 0.00 0.01 74 965.1
20260506194954 62 266 5.0 11.0 0.01 0.00 0.01 74 965.1
20260506193954 62 266 5.0 11.0 0.01 0.00 0.01 74 965.1
20260506192954 62 266 5.0 11.0 0.01 0.00 0.01 74 965.1
20260506191954 63 299 2.0 5.0 0.00 0.00 0.00 70 963.9
20260506190954 63 90 1.0 4.0 0.00 0.00 0.00 69 964.0
20260506185954 63 90 1.0 4.0 0.00 0.00 0.00 69 964.0
20260506184954 64 333 1.0 3.0 0.00 0.00 0.00 68 963.4
20260506183954 64 327 1.0 2.0 0.00 0.00 0.00 68 963.2
20260506182954 64 327 1.0 2.0 0.00 0.00 0.00 68 963.2
20260506181954 64 315 1.0 2.0 0.00 0.00 0.00 68 963.1
20260506180954 65 326 2.0 5.0 0.00 0.00 0.00 69 962.8
20260506175954 65 326 2.0 5.0 0.00 0.00 0.00 69 962.8
20260506174954 65 319 2.0 6.0 0.00 0.00 0.00 68 962.7
20260506173954 67 313 4.0 9.0 0.00 0.00 0.00 69 962.5
20260506172954 67 313 4.0 9.0 0.00 0.00 0.00 69 962.5
20260506171954 67 319 4.0 11.0 0.00 0.00 0.00 69 962.5
20260506170954 67 308 4.0 9.0 0.00 0.00 0.00 68 962.5
20260506165954 68 305 3.0 9.0 0.00 0.00 0.00 68 962.5
20260506164954 68 305 3.0 9.0 0.00 0.00 0.00 68 962.5
20260506163954 68 307 3.0 8.0 0.00 0.00 0.00 67 962.4
20260506162954 68 315 2.0 6.0 0.00 0.00 0.00 65 962.5
20260506161954 69 336 2.0 5.0 0.00 0.00 0.00 64 962.5
20260506160954 69 336 2.0 5.0 0.00 0.00 0.00 64 962.5
20260506155954 69 327 2.0 7.0 0.00 0.00 0.00 64 962.6
20260506154954 69 123 1.0 4.0 0.00 0.00 0.00 63 962.6
20260506153954 70 239 2.0 3.0 0.00 0.00 0.00 62 962.7
20260506152954 70 98 2.0 5.0 0.00 0.00 0.00 63 962.8
20260506151954 70 104 3.0 9.0 0.00 0.00 0.00 63 962.9
20260506150954 70 103 6.0 13.0 0.00 0.00 0.00 63 963.2
20260506145954 70 103 6.0 13.0 0.00 0.00 0.00 63 963.2
20260506144954 70 114 5.0 9.0 0.00 0.00 0.00 62 963.2
20260506143954 71 330 2.0 6.0 0.00 0.00 0.00 59 963.3
20260506142954 71 330 2.0 6.0 0.00 0.00 0.00 59 963.3
20260506141954 71 353 2.0 5.0 0.00 0.00 0.00 59 963.4
20260506140954 71 323 2.0 7.0 0.00 0.00 0.00 59 963.5
20260506135954 71 323 2.0 7.0 0.00 0.00 0.00 59 963.5
20260506134954 72 59 1.0 3.0 0.00 0.00 0.00 59 963.7
20260506133954 72 90 3.0 11.0 0.00 0.00 0.00 60 963.8
20260506132954 72 81 2.0 6.0 0.00 0.00 0.00 61 963.7
20260506131954 71 59 3.0 9.0 0.00 0.00 0.00 61 963.7
20260506130954 71 327 2.0 5.0 0.00 0.00 0.00 61 963.7
20260506125954 71 194 1.0 4.0 0.00 0.00 0.00 61 963.9
20260506124954 70 278 3.0 8.0 0.00 0.00 0.00 60 963.9
20260506123954 70 341 2.0 5.0 0.00 0.00 0.00 62 964.0
20260506122954 69 90 1.0 4.0 0.00 0.00 0.00 61 964.2
20260506121954 69 254 2.0 5.0 0.00 0.00 0.00 61 964.5
20260506120954 69 180 2.0 5.0 0.00 0.00 0.00 62 964.6
20260506115954 69 175 2.0 6.0 0.00 0.00 0.00 63 964.7
20260506114954 69 227 2.0 6.0 0.00 0.00 0.00 63 964.7
20260506113954 69 228 4.0 11.0 0.00 0.00 0.00 63 964.7
20260506112954 69 283 4.0 15.0 0.00 0.00 0.00 63 964.8
20260506111954 69 244 2.0 11.0 0.00 0.00 0.00 65 964.9
20260506110954 68 265 4.0 8.0 0.00 0.00 0.00 66 964.9
20260506105954 67 290 3.0 7.0 0.00 0.00 0.00 67 965.0
20260506104954 67 238 2.0 7.0 0.00 0.00 0.00 69 965.1
20260506103954 66 231 3.0 7.0 0.00 0.00 0.00 70 965.2
20260506102954 66 259 2.0 6.0 0.00 0.00 0.00 69 965.3
20260506101954 65 250 3.0 8.0 0.00 0.00 0.00 71 965.5
20260506100954 64 223 2.0 6.0 0.00 0.00 0.00 73 965.7
20260506095954 64 223 2.0 6.0 0.00 0.00 0.00 73 965.7
20260506094954 64 222 4.0 9.0 0.00 0.00 0.00 74 965.7
20260506093954 64 244 2.0 7.0 0.00 0.00 0.00 77 965.7
20260506092954 64 244 2.0 7.0 0.00 0.00 0.00 77 965.7
20260506091954 63 209 3.0 6.0 0.00 0.00 0.00 77 965.7
20260506090954 62 278 3.0 8.0 0.00 0.00 0.00 78 965.8
20260506085954 62 278 3.0 8.0 0.00 0.00 0.00 78 965.8
20260506084954 62 291 2.0 6.0 0.00 0.00 0.00 79 965.6
20260506083954 61 270 3.0 7.0 0.00 0.00 0.00 80 965.5
20260506082954 61 286 3.0 7.0 0.00 0.00 0.00 81 965.6
20260506081954 60 270 2.0 6.0 0.00 0.00 0.00 82 965.6
20260506080954 60 285 2.0 6.0 0.00 0.00 0.00 83 965.4
20260506072954 59 249 3.0 9.0 0.00 0.00 0.00 86 965.5
20260506071954 58 217 4.0 9.0 0.00 0.00 0.00 87 965.5
20260506070954 58 212 5.0 11.0 0.00 0.00 0.00 88 965.6
20260506061954 55 213 3.0 6.0 0.00 0.00 0.00 88 965.5
20260506060954 55 213 3.0 6.0 0.00 0.00 0.00 88 965.5
20260506044954 54 128 2.0 3.0 0.00 0.00 0.00 87 965.5